When you browse on this site, cookies collect data to enhance your experience and personalize the content and advertising you see.
Visit our Privacy Policy to learn more. By continuing to use the site, you agree to this use of cookies and data.
  • în România
  • Lista ţărilor
  • Pe 7 zile
  • Temperatura apei
  • Meteo pe hartă
  • Widget-uri
  • user-avatar
    Intrare

    Meteo pe oră la Glasgow

    Astăzi, 25 Februarie, Marţi

    Timp Temperatura Precipitaţii Vânt Presiune Umiditate
    00:00 +1°C° 0.4 mm 3 m/s 744 mmHg 98%
    01:00 +2°C° 0.1 mm 2 m/s 744 mmHg 98%
    02:00 +3°C° 0.1 mm 1 m/s 743 mmHg 98%
    03:00 +2°C° 0.1 mm 0 m/s 743 mmHg 98%
    04:00 +3°C° 0 mm 1 m/s 743 mmHg 98%
    05:00 +3°C° 0 mm 1 m/s 743 mmHg 98%
    06:00 +3°C° 0 mm 1 m/s 742 mmHg 98%
    07:00 +3°C° 0 mm 1 m/s 742 mmHg 96%
    08:00 +2°C° 0 mm 2 m/s 741 mmHg 95%
    09:00 +2°C° 0 mm 2 m/s 741 mmHg 94%
    10:00 +2°C° 0 mm 2 m/s 740 mmHg 92%
    11:00 +3°C° 0 mm 2 m/s 740 mmHg 90%
    12:00 +3°C° 0 mm 2 m/s 740 mmHg 88%
    13:00 +3°C° 0 mm 2 m/s 740 mmHg 87%
    14:00 +4°C° 0 mm 2 m/s 739 mmHg 86%
    15:00 +4°C° 0 mm 2 m/s 739 mmHg 85%
    16:00 +2°C° 0.2 mm 3 m/s 739 mmHg 87%
    17:00 +1°C° 0.2 mm 3 m/s 739 mmHg 89%
    18:00 0°C° 0.2 mm 3 m/s 738 mmHg 90%
    19:00 0°C° 0 mm 3 m/s 738 mmHg 89%
    20:00 -2°C° 0 mm 4 m/s 738 mmHg 88%
    21:00 -2°C° 0 mm 4 m/s 738 mmHg 87%
    22:00 -2°C° 0 mm 5 m/s 739 mmHg 86%
    23:00 -2°C° 0 mm 5 m/s 739 mmHg 84%

    Mâine, 26 Februarie, Miercuri

    Timp Temperatura Precipitaţii Vânt Presiune Umiditate
    00:00 -3°C° 0 mm 6 m/s 740 mmHg 83%
    01:00 -2°C° 0 mm 6 m/s 740 mmHg 82%
    02:00 -2°C° 0 mm 7 m/s 740 mmHg 82%
    03:00 -2°C° 0 mm 7 m/s 740 mmHg 81%
    04:00 -2°C° 0 mm 8 m/s 741 mmHg 81%
    05:00 -2°C° 0 mm 8 m/s 741 mmHg 81%
    06:00 -3°C° 0 mm 9 m/s 742 mmHg 81%
    07:00 -1°C° 0 mm 9 m/s 742 mmHg 80%
    08:00 -1°C° 0 mm 9 m/s 743 mmHg 78%
    09:00 -1°C° 0 mm 9 m/s 743 mmHg 77%
    10:00 0°C° 0 mm 9 m/s 744 mmHg 76%
    11:00 0°C° 0 mm 9 m/s 744 mmHg 74%
    12:00 +1°C° 0 mm 9 m/s 745 mmHg 73%
    13:00 +1°C° 0 mm 8 m/s 745 mmHg 71%
    14:00 +1°C° 0 mm 8 m/s 745 mmHg 70%
    15:00 +2°C° 0 mm 7 m/s 745 mmHg 68%
    16:00 -1°C° 0 mm 7 m/s 745 mmHg 72%
    17:00 -2°C° 0 mm 6 m/s 745 mmHg 76%
    18:00 -3°C° 0 mm 6 m/s 745 mmHg 80%
    19:00 -4°C° 0 mm 6 m/s 745 mmHg 81%
    20:00 -4°C° 0 mm 6 m/s 745 mmHg 82%
    21:00 -4°C° 0 mm 5 m/s 745 mmHg 83%
    22:00 -4°C° 0 mm 5 m/s 745 mmHg 82%
    23:00 -4°C° 0 mm 5 m/s 745 mmHg 82%

    Poimâine, 27 Februarie, Joi

    Timp Temperatura Precipitaţii Vânt Presiune Umiditate
    00:00 -4°C° 0 mm 5 m/s 744 mmHg 81%
    01:00 -4°C° 0 mm 5 m/s 744 mmHg 81%
    02:00 -4°C° 0 mm 6 m/s 744 mmHg 81%
    03:00 -4°C° 0 mm 6 m/s 743 mmHg 81%
    04:00 -4°C° 0 mm 6 m/s 743 mmHg 82%
    05:00 -5°C° 0 mm 6 m/s 743 mmHg 83%
    06:00 -5°C° 0 mm 6 m/s 742 mmHg 84%
    07:00 -4°C° 0 mm 5 m/s 742 mmHg 81%
    08:00 -2°C° 0 mm 5 m/s 742 mmHg 77%
    09:00 -1°C° 0 mm 5 m/s 742 mmHg 74%
    10:00 0°C° 0 mm 5 m/s 742 mmHg 72%
    11:00 +1°C° 0 mm 6 m/s 742 mmHg 70%
    12:00 +2°C° 0 mm 6 m/s 742 mmHg 68%
    13:00 +3°C° 0 mm 7 m/s 742 mmHg 66%
    14:00 +2°C° 0 mm 8 m/s 743 mmHg 63%
    15:00 +2°C° 0 mm 9 m/s 743 mmHg 61%
    16:00 +1°C° 0 mm 9 m/s 743 mmHg 64%
    17:00 0°C° 0 mm 10 m/s 744 mmHg 67%
    18:00 -2°C° 0 mm 11 m/s 745 mmHg 70%
    19:00 -2°C° 0 mm 10 m/s 745 mmHg 71%
    20:00 -2°C° 0 mm 10 m/s 746 mmHg 73%
    21:00 -2°C° 0 mm 10 m/s 747 mmHg 75%
    22:00 -2°C° 0 mm 10 m/s 747 mmHg 76%
    23:00 -2°C° 0 mm 10 m/s 748 mmHg 77%

    28 Februarie, Vineri

    Timp Temperatura Precipitaţii Vânt Presiune Umiditate
    00:00 -2°C° 0 mm 10 m/s 749 mmHg 77%
    01:00 -1°C° 0 mm 9 m/s 749 mmHg 79%
    02:00 -3°C° 0 mm 9 m/s 750 mmHg 80%
    03:00 -2°C° 0 mm 8 m/s 750 mmHg 81%
    04:00 -2°C° 0 mm 6 m/s 750 mmHg 82%
    05:00 -2°C° 0 mm 5 m/s 751 mmHg 83%
    06:00 -2°C° 0 mm 4 m/s 751 mmHg 84%
    07:00 -1°C° 0 mm 3 m/s 751 mmHg 81%
    08:00 0°C° 0 mm 3 m/s 751 mmHg 77%
    09:00 +1°C° 0 mm 3 m/s 751 mmHg 73%
    10:00 +1°C° 0 mm 4 m/s 751 mmHg 72%
    11:00 +3°C° 0 mm 4 m/s 751 mmHg 70%
    12:00 +3°C° 0 mm 5 m/s 751 mmHg 69%
    13:00 +3°C° 0 mm 6 m/s 750 mmHg 70%
    14:00 +3°C° 0 mm 6 m/s 749 mmHg 71%
    15:00 +3°C° 0 mm 7 m/s 748 mmHg 71%
    16:00 +2°C° 0 mm 7 m/s 748 mmHg 75%
    17:00 +1°C° 0 mm 8 m/s 747 mmHg 78%
    18:00 0°C° 0 mm 9 m/s 746 mmHg 82%
    19:00 0°C° 0 mm 10 m/s 745 mmHg 81%
    20:00 0°C° 0 mm 10 m/s 744 mmHg 81%
    21:00 -1°C° 0 mm 11 m/s 743 mmHg 80%
    22:00 -1°C° 0.2 mm 12 m/s 742 mmHg 85%
    23:00 0°C° 0.2 mm 12 m/s 740 mmHg 90%

    29 Februarie, Sâmbătă

    Timp Temperatura Precipitaţii Vânt Presiune Umiditate
    00:00 0°C° 0.2 mm 13 m/s 739 mmHg 94%
    01:00 0°C° 1.3 mm 13 m/s 737 mmHg 95%
    02:00 0°C° 1.3 mm 13 m/s 735 mmHg 95%
    03:00 +1°C° 1.3 mm 14 m/s 733 mmHg 96%
    04:00 +1°C° 2.3 mm 14 m/s 731 mmHg 96%
    05:00 +1°C° 2.3 mm 14 m/s 729 mmHg 96%
    06:00 +1°C° 2.3 mm 14 m/s 727 mmHg 96%
    07:00 +2°C° 1.2 mm 11 m/s 726 mmHg 96%
    08:00 +4°C° 1.2 mm 8 m/s 725 mmHg 97%
    09:00 +5°C° 1.2 mm 5 m/s 724 mmHg 97%
    10:00 +3°C° 0.4 mm 7 m/s 724 mmHg 92%
    11:00 +2°C° 0.4 mm 9 m/s 724 mmHg 87%
    12:00 +1°C° 0.4 mm 10 m/s 724 mmHg 82%
    13:00 +1°C° 0.2 mm 10 m/s 724 mmHg 80%
    14:00 +2°C° 0.2 mm 10 m/s 725 mmHg 79%
    15:00 +2°C° 0.2 mm 10 m/s 725 mmHg 77%
    16:00 +1°C° 0 mm 10 m/s 726 mmHg 76%
    17:00 +1°C° 0 mm 9 m/s 727 mmHg 75%
    18:00 0°C° 0 mm 9 m/s 728 mmHg 75%
    19:00 0°C° 0 mm 8 m/s 729 mmHg 77%
    20:00 -1°C° 0 mm 8 m/s 730 mmHg 79%
    21:00 -2°C° 0 mm 7 m/s 730 mmHg 81%
    22:00 -2°C° 0 mm 7 m/s 731 mmHg 82%
    23:00 -2°C° 0 mm 7 m/s 732 mmHg 84%

    1 Martie, Duminică

    Timp Temperatura Precipitaţii Vânt Presiune Umiditate
    00:00 -2°C° 0 mm 6 m/s 733 mmHg 85%
    01:00 -2°C° 0 mm 6 m/s 734 mmHg 84%
    02:00 -2°C° 0 mm 6 m/s 735 mmHg 82%
    03:00 -2°C° 0 mm 6 m/s 735 mmHg 80%
    04:00 -3°C° 0 mm 6 m/s 736 mmHg 82%
    05:00 -2°C° 0 mm 5 m/s 736 mmHg 84%
    06:00 -4°C° 0 mm 5 m/s 737 mmHg 86%
    07:00 -2°C° 0 mm 5 m/s 737 mmHg 84%
    08:00 -1°C° 0 mm 5 m/s 738 mmHg 81%
    09:00 0°C° 0 mm 5 m/s 738 mmHg 78%
    10:00 +1°C° 0 mm 5 m/s 739 mmHg 75%
    11:00 +3°C° 0 mm 4 m/s 739 mmHg 71%
    12:00 +4°C° 0 mm 4 m/s 739 mmHg 67%
    13:00 +4°C° 0 mm 3 m/s 740 mmHg 66%
    14:00 +4°C° 0 mm 3 m/s 740 mmHg 65%
    15:00 +6°C° 0 mm 2 m/s 741 mmHg 64%
    16:00 +4°C° 0 mm 2 m/s 742 mmHg 71%
    17:00 +3°C° 0 mm 2 m/s 742 mmHg 78%
    18:00 +1°C° 0 mm 2 m/s 743 mmHg 84%
    19:00 +1°C° 0 mm 2 m/s 743 mmHg 85%
    20:00 +1°C° 0 mm 2 m/s 744 mmHg 85%
    21:00 -1°C° 0 mm 2 m/s 745 mmHg 86%
    22:00 -1°C° 0 mm 2 m/s 745 mmHg 85%
    23:00 -1°C° 0 mm 3 m/s 745 mmHg 84%
    Arată mai mult